Ozark, AL

2:07 PM CST on February 24, 2018 (GMT -0600)
Cairns Army Air Field

Weather History for KOZR - March, 2011

Change the Weather History Date:

Friday, March 4, 2011

  Actual Average Record
Temperature  
Mean Temperature 62 °F -  
Max Temperature 70 °F 65 °F 80 °F (1997)
Min Temperature 53 °F 43 °F 26 °F (2002)
Degree Days  
Heating Degree Days 4    
Growing Degree Days 12 (Base 50)    
Moisture  
Dew Point 54 °F    
Average Humidity 78    
Maximum Humidity 95    
Minimum Humidity 58    
Precipitation  
Precipitation 0.00 in - - ()
Sea Level Pressure  
Sea Level Pressure 30.23 in    
Wind  
Wind Speed 10 mph (East)    
Max Wind Speed 16 mph    
Max Gust Speed 21 mph    
Visibility 10 miles    
Events      
Averages and records for this station are not official NWS values.
T = Trace of Precipitation, MM = Missing Value Source: NWS Daily Summary

Daily Weather History Graph

Daily Weather History Graph

Search for Another Location

Airport or City:

Trip Planner

Search our weather history database for the weather conditions in past years. The results will help you decide how hot, cold, wet, or windy it might be!

Date:

Astronomy

Mar. 04, 2011 Rise Set
Actual Time 6:06 AM CST 5:43 PM CST
Civil Twilight 5:42 AM CST 6:07 PM CST
Nautical Twilight 5:14 AM CST 6:35 PM CST
Astronomical Twilight 4:46 AM CST 7:03 PM CST
Moon 5:40 AM CST (3/4) 5:48 PM CST (3/4)
Length of Visible Light 12h 25m
Length of Day
11h 36m
Waning Crescent, 0% of the Moon is Illuminated
Mar 4
Waning Crescent
Mar 4
New
Mar 12
First Quarter
Mar 19
Full
Mar 26
Last Quarter

Hourly Weather History & Observations

Time (CST) Temp. Dew Point Humidity Pressure Visibility Wind Dir Wind Speed Gust Speed Precip Events Conditions
12:55 AM 59.4 °F 52.2 °F 77% 30.23 in 10.0 mi East 8.1 mph - N/A   Partly Cloudy
1:55 AM 57.6 °F 53.6 °F 87% 30.23 in 10.0 mi East 8.1 mph - N/A   Partly Cloudy
2:55 AM 56.1 °F 53.2 °F 90% 30.22 in 10.0 mi East 12.7 mph 20.7 mph N/A   Scattered Clouds
3:55 AM 54.9 °F 52.7 °F 92% 30.22 in 10.0 mi ENE 8.1 mph - N/A   Scattered Clouds
4:55 AM 54.0 °F 52.7 °F 95% 30.23 in 10.0 mi ENE 9.2 mph - N/A   Partly Cloudy
5:55 AM 54.0 °F 52.7 °F 95% 30.25 in 10.0 mi East 9.2 mph - N/A   Mostly Cloudy
5:56 AM 53.6 °F 51.8 °F 94% 30.26 in 10.0 mi East 9.2 mph - N/A   Mostly Cloudy
6:55 AM 54.9 °F 53.2 °F 94% 30.27 in 10.0 mi ENE 11.5 mph - N/A   Overcast
7:55 AM 56.1 °F 53.2 °F 90% 30.30 in 10.0 mi ENE 12.7 mph 19.6 mph N/A   Overcast
8:29 AM 59.0 °F 53.6 °F 82% 30.30 in 10.0 mi East 12.7 mph - N/A   Mostly Cloudy
8:33 AM 59.0 °F 53.6 °F 82% 30.30 in 10.0 mi East 11.5 mph - N/A   Scattered Clouds
8:55 AM 60.3 °F 54.5 °F 81% 30.30 in 10.0 mi East 16.1 mph - N/A   Scattered Clouds
9:55 AM 63.7 °F 55.6 °F 75% 30.29 in 10.0 mi East 13.8 mph - N/A   Partly Cloudy
11:55 AM 70.2 °F 54.9 °F 58% 30.26 in 10.0 mi ESE 13.8 mph 20.7 mph N/A   Partly Cloudy
12:55 PM 70.3 °F 54.7 °F 58% 30.24 in 10.0 mi East 12.7 mph 20.7 mph N/A   Scattered Clouds
1:55 PM 69.4 °F 54.7 °F 59% 30.21 in 10.0 mi East 10.4 mph 18.4 mph N/A   Scattered Clouds
2:55 PM 70.7 °F 55.6 °F 59% 30.19 in 10.0 mi East 13.8 mph - N/A   Clear
3:55 PM 69.1 °F 55.0 °F 61% 30.18 in 10.0 mi East 10.4 mph - N/A   Clear
4:55 PM 67.8 °F 55.0 °F 64% 30.17 in 10.0 mi East 10.4 mph - N/A   Clear
5:55 PM 65.1 °F 55.2 °F 70% 30.18 in 10.0 mi ENE 8.1 mph - N/A   Partly Cloudy
6:55 PM 64.6 °F 56.3 °F 74% 30.19 in 10.0 mi ENE 11.5 mph - N/A   Scattered Clouds
7:55 PM 63.7 °F 56.5 °F 77% 30.19 in 10.0 mi East 9.2 mph - N/A   Scattered Clouds
8:55 PM 62.8 °F 57.0 °F 81% 30.19 in 10.0 mi East 9.2 mph - N/A   Clear
9:55 PM 62.1 °F 56.8 °F 83% 30.19 in 10.0 mi ENE 9.2 mph - N/A   Mostly Cloudy
10:55 PM 61.9 °F 55.8 °F 80% 30.20 in 10.0 mi East 9.2 mph - N/A   Mostly Cloudy
11:55 PM 62.2 °F 54.7 °F 76% 30.19 in 10.0 mi East 9.2 mph - N/A   Scattered Clouds